Weather observations for the past three days for
Memphis International Airport
Imperial (Metric)
Date Time (cdt) Wind (mph) Vis. (mi.) Weather Sky Cond. Temperature (ºF) Relative Humidity Wind Chill (°F) Heat Index (°F) Pressure Precipitation (in)
Air Dwpt 6 hour altimeter (in) sea level (mb) 1 hr 3 hr 6 hr
Max. Min.
13 00:54 Calm 10.00 Fair CLR 71.1 55.9 82.9 69.1 59% 29.96 1014.0
12 23:54 SE 6 10.00 Fair CLR 73 55 53% 29.96 1014.2
12 22:54 SE 3 10.00 Fair CLR 72 55.9 57% 29.97 1014.4
12 21:54 Calm 10.00 Fair CLR 73.9 55 52% 29.97 1014.4
12 20:54 E 6 10.00 Fair CLR 77 54 45% 78 29.96 1014.0
12 19:54 NE 7 10.00 Fair CLR 80.1 51.1 37% 80 29.95 1013.8
12 18:54 NE 6 10.00 A Few Clouds FEW250 82.9 50 84.9 81 32% 81 29.96 1014.0
12 17:54 Vrbl 3 10.00 A Few Clouds FEW250 84 51.1 32% 82 29.96 1014.0
12 16:54 Vrbl 5 10.00 A Few Clouds FEW250 84.9 51.1 31% 83 29.96 1014.2
12 15:54 N 8 10.00 A Few Clouds FEW250 84 51.1 32% 82 29.97 1014.5
12 14:54 Vrbl 3 10.00 A Few Clouds FEW250 84 53.1 34% 83 29.99 1015.0
12 13:54 Vrbl 6 10.00 Partly Cloudy SCT250 82 51.1 34% 81 30 1015.6
12 12:54 NE 9 10.00 Partly Cloudy FEW160 SCT180 SCT200 81 51.1 81 66 35% 80 30.02 1016.1
12 11:54 N 3 10.00 Mostly Cloudy BKN230 BKN250 80.1 53.1 39% 80 30.03 1016.5
12 10:54 NE 6 10.00 Mostly Cloudy BKN200 BKN250 78.1 51.1 39% 79 30.04 1016.8
12 09:54 Vrbl 3 10.00 Mostly Cloudy BKN250 77 52 42% 78 30.04 1016.8
12 08:54 N 5 10.00 Mostly Cloudy BKN220 BKN250 73.9 54 50% 30.04 1016.9
12 06:54 NE 3 10.00 Mostly Cloudy BKN250 66 55 70 63 68% 30.03 1016.4
12 05:54 E 3 10.00 Mostly Cloudy BKN250 64 54 70% 30.01 1015.9
12 04:54 NE 6 10.00 Mostly Cloudy BKN250 66 54 65% 30 1015.4
12 03:54 E 5 10.00 Mostly Cloudy BKN250 66.9 55 66% 29.98 1015.0
12 02:54 SE 5 10.00 Overcast OVC250 68 55.9 65% 29.98 1014.8
12 01:54 E 5 10.00 Mostly Cloudy BKN250 68 55.9 65% 29.99 1015.0
12 00:54 NE 7 10.00 Mostly Cloudy BKN250 70 55 79 68 59% 29.99 1015.2
11 23:54 NE 7 10.00 Mostly Cloudy BKN250 71.1 55 57% 30 1015.3
11 22:54 NE 6 10.00 Mostly Cloudy BKN250 72 55 55% 29.99 1015.1
11 21:54 NE 8 10.00 A Few Clouds FEW250 73 54 51% 29.97 1014.6
11 19:54 N 8 10.00 A Few Clouds FEW250 75 55.9 52% 78 29.95 1013.8
11 18:54 N 8 10.00 Partly Cloudy FEW190 SCT250 79 55 82 79 44% 80 29.94 1013.5
11 17:54 N 9 10.00 Partly Cloudy FEW190 SCT250 80.1 55.9 44% 80 29.94 1013.7
11 16:54 NE 8 10.00 Mostly Cloudy FEW190 BKN250 80.1 55 42% 80 29.96 1014.0
11 15:54 Vrbl 6 10.00 Mostly Cloudy FEW150 BKN250 80.1 53.1 39% 80 29.96 1014.3
11 14:54 NE 13 G 17 10.00 Mostly Cloudy FEW230 BKN250 80.1 55.9 44% 80 29.97 1014.5
11 13:54 NE 12 G 22 10.00 Mostly Cloudy FEW230 BKN250 81 53.1 38% 80 29.99 1015.0
11 12:54 NE 10 G 17 10.00 Mostly Cloudy FEW180 BKN250 80.1 53.1 80.1 66 39% 80 30 1015.5
11 11:54 NE 6 10.00 Partly Cloudy FEW180 SCT250 78.1 53.1 42% 79 30.01 1015.7
11 10:54 E 8 10.00 Partly Cloudy FEW180 SCT250 77 55 47% 78 30.01 1015.9
11 09:54 E 8 10.00 Partly Cloudy SCT250 75 55 50% 78 30.02 1016.0
11 08:54 E 8 10.00 Mostly Cloudy BKN250 72 55.9 57% 30.01 1015.9
11 07:54 E 8 10.00 Mostly Cloudy BKN250 70 57 64% 30.01 1015.8
11 06:54 E 7 10.00 Mostly Cloudy BKN250 66 57 72 64.9 73% 30 1015.5
11 05:54 E 5 10.00 Mostly Cloudy BKN250 64.9 57 76% 29.99 1015.1
11 04:54 Vrbl 6 10.00 A Few Clouds FEW250 68 57 68% 29.98 1014.8
11 03:54 E 12 10.00 Mostly Cloudy BKN250 68 57 68% 29.97 1014.3
11 02:54 E 9 10.00 Mostly Cloudy BKN250 69.1 57 66% 29.95 1013.6
11 01:54 E 8 10.00 Mostly Cloudy BKN250 70 55.9 61% 29.95 1013.6
11 00:54 E 12 10.00 Mostly Cloudy BKN250 72 55.9 81 72 57% 29.94 1013.3
10 23:54 NE 9 10.00 Mostly Cloudy BKN250 73 55.9 55% 29.92 1012.9
10 22:54 NE 8 10.00 Mostly Cloudy BKN250 75 55.9 52% 78 29.92 1012.7
10 21:54 NE 8 10.00 Partly Cloudy SCT250 75 54 48% 78 29.91 1012.2
10 20:54 NE 8 10.00 Mostly Cloudy BKN250 77 52 42% 78 29.89 1011.8
10 19:54 N 9 10.00 Mostly Cloudy BKN250 79 50 36% 79 29.88 1011.4
10 18:54 N 14 10.00 Mostly Cloudy FEW075 BKN250 81 51.1 86 81 35% 80 29.87 1011.1
10 17:54 NW 14 10.00 Partly Cloudy FEW070 SCT250 82 51.1 34% 81 29.87 1011.1
10 16:54 N 9 10.00 Partly Cloudy FEW070 SCT250 84 52 33% 82 29.88 1011.6
10 15:54 NW 13 10.00 Partly Cloudy SCT065 84 54 36% 83 29.89 1011.9
10 14:54 NW 13 10.00 A Few Clouds FEW055 FEW250 84 55 37% 83 29.9 1012.3
10 13:54 Vrbl 5 10.00 A Few Clouds FEW055 FEW065 FEW250 84 59 43% 84 29.92 1012.6
10 12:54 NE 7 10.00 A Few Clouds FEW065 FEW250 82.9 54 82.9 64.9 37% 82 29.93 1013.2
10 11:54 N 6 10.00 A Few Clouds FEW250 82 60.1 47% 82 29.95 1013.6
10 10:54 N 6 10.00 Fair CLR 79 60.1 52% 80 29.95 1013.9
10 09:54 N 3 10.00 Fair CLR 75.9 57.9 54% 78 29.96 1014.2
10 08:54 N 6 10.00 Fair CLR 73 57.9 59% 29.96 1014.2
10 07:54 NE 3 10.00 Partly Cloudy SCT095 SCT250 70 59 68% 29.96 1014.2
10 06:54 N 5 10.00 Mostly Cloudy BKN095 BKN250 64.9 60.1 66 62.1 84% 29.95 1014.0 0.01
10 05:54 N 8 10.00 Mostly Cloudy BKN090 64 60.1 87% 29.93 1013.3
10 04:54 N 5 10.00 Mostly Cloudy FEW080 BKN095 63 59 87% 29.92 1012.9
10 03:54 N 5 10.00 Mostly Cloudy BKN075 BKN090 64 60.1 87% 29.92 1012.6 0.01
10 02:54 NE 9 10.00 Partly Cloudy SCT090 64 59 84% 29.9 1012.1
10 01:54 NE 9 10.00 Overcast FEW060 OVC090 64.9 59 81% 29.92 1012.8 0.01
Date Time (cdt) Wind (mph) Vis. (mi.) Weather Sky Cond. Air Dwpt Max. Min. Relative Humidity Wind Chill (°F) Heat Index (°F) altimeter (in) sea level (mb) 1 hr 3 hr 6 hr
6 hour
Temperature (ºF) Pressure Precipitation (in)